Location: Milo
(50.5667°N, 112.8833°W)
Time: 07:24:56
(UTC+00:00)

N. Korean satellite - Pass Details

Date: 10 December 2021
Orbit: 446 x 491 km, 97.3° (Epoch: 18 January)

Event Time Altitude Azimuth Distance (km) Brightness Sun altitude
Rises 12:50:19 0° 14° (NNE) 2,464 10.2 -22.8°
Reaches altitude 10° 12:52:22 10° 16° (NNE) 1,586 9.2 -22.5°
Enters shadow 12:54:07 28° 22° (NNE) 876 7.9 -22.2°
Exits shadow 12:57:16 31° 182° (S) 821 7.7 -21.7°
Drops below altitude 10° 12:59:08 10° 188° (S) 1,576 9.2 -21.5°
Sets 13:01:09 0° 191° (S) 2,447 10.1 -21.1°
